Location: Unspecified
(0.0000°N, 0.0000°E)
Time: 05:08:23
(UTC+01:00)

Atlas Centaur 2 - Visible Passes

Search period start: 25 November 2017 00:00
Search period end: 05 December 2017 00:00
Orbit: 459 x 1313 km, 30.4° (Epoch: 24 November)

Date Brightness Start Highest point End Pass type
(mag) Time Alt. Az. Time Alt. Az. Time Alt. Az.
25 Nov 1.9 19:39:37 10° SW 19:42:59 35° SSE 19:44:51 21° E visible
26 Nov 4.9 04:53:03 10° N 04:55:40 12° NNE 04:58:23 10° NE visible
26 Nov 1.1 19:36:06 10° SW 19:39:43 59° SSE 19:41:54 21° ENE visible
27 Nov 4.7 04:49:41 12° N 04:52:23 15° NNE 04:56:34 10° ENE visible
27 Nov 0.9 19:32:43 10° WSW 19:36:27 81° NNW 19:38:59 18° NE visible
28 Nov 4.5 04:46:40 16° N 04:49:03 18° NNE 04:54:15 10° ENE visible
28 Nov 1.6 19:29:30 10° WSW 19:33:10 48° NNW 19:36:04 14° NE visible
29 Nov 4.2 04:43:41 20° N 04:45:39 23° NNE 04:51:38 10° E visible
29 Nov 2.4 19:26:27 10° W 19:29:52 30° NNW 19:33:03 10° NNE visible
30 Nov 3.9 04:40:42 26° NNE 04:42:12 28° NNE 04:48:48 10° E visible
30 Nov 3.1 19:23:36 10° W 19:26:33 20° NNW 19:29:18 10° NNE visible
01 Dec 3.6 04:37:42 34° NNE 04:38:42 35° NE 04:45:47 10° E visible
01 Dec 3.2 06:20:57 10° WNW 06:28:20 70° SSW 06:36:50 10° SE visible
01 Dec 3.5 19:21:07 10° WNW 19:23:14 14° NNW 19:25:15 10° N visible
02 Dec 3.2 04:34:44 44° NNE 04:35:12 44° NE 04:42:35 10° ESE visible
02 Dec 3.3 06:17:45 10° WNW 06:24:51 55° SSW 06:33:05 10° SE visible
03 Dec 2.9 04:31:43 57° NE 04:31:43 57° NE 04:39:15 10° ESE visible
03 Dec 3.6 06:14:40 10° W 06:21:25 43° SSW 06:29:16 10° SE visible
04 Dec 2.7 04:28:42 70° ENE 04:28:42 70° ENE 04:35:49 10° ESE visible
04 Dec 3.9 06:11:45 10° W 06:18:02 34° SSW 06:25:18 10° SSE visible
